Flag for U.S.A. Weather past 2 weeks in Lakewood, Colorado, U.S.A.

Now
43 °F

Light rain. Fog.


Feels Like: 38 °F
Forecast: 40 / 47 °F
Wind: 9 mph from Northeast

Location: Centennial Airport

Current Time: Apr 26, 2015 at 5:17:58 PM

Latest Report: Apr 26, 2015 at 4:53 PM


Visibility: 1 mi

Pressure: 29.88 "Hg

Humidity: 97%

Dew point: 42 °F

Location of LakewoodLocation

Historic Weather in Lakewood — Graph

°F

Lakewood temperature yesterday

Maximum temperature yesterday: 66 °F (at 12:53 PM)
Minimum temperature yesterday: 37 °F (at 3:53 AM)
Average temperature yesterday: 52 °F

Past Weeks' High & Low Weather Summary

 TemperatureHumidityPressure
High73 °F (Apr 14, 1:53 PM)100% (Apr 16, 8:53 AM)30.21 "Hg (Apr 16, 8:53 AM)
Low31 °F (Apr 16, 7:02 AM)9% (Apr 14, 1:53 PM)29.50 "Hg (Apr 15, 3:53 AM)
Average48 °F55%29.87 "Hg
* Reported Apr 11 3:53 PM — Apr 26 3:53 PM, Lakewood, Weather by CustomWeather, © 2015

Note: Actual official high and low records may vary slightly from our data, if they occured in-between our weather recording intervals... More about our weather records

Advertising

Lakewood weather history for previous 24 hours

 ConditionsComfort  
Time TempWeatherWind HumidityBarometerVisibility
3:53 PM
Sun, Apr 26
44 °FLight rain. Fog.10 mph96%29.84 "Hg1 mi
2:53 PM45 °FMostly cloudy.9 mph86%29.84 "Hg10 mi
1:53 PM43 °FLight rain. Fog.7 mph97%29.83 "Hg5 mi
12:53 PM43 °FLight rain. Mostly cloudy.8 mph93%29.83 "Hg3 mi
12:01 PM42 °FLight rain. Fog.7 mph96%29.87 "Hg3 mi
10:53 AM42 °FFog.9 mph96%29.82 "Hg3 mi
9:53 AM42 °FFog.12 mph96%29.80 "Hg3 mi
8:53 AM41 °FRain. Fog.8 mph100%29.79 "Hg1 mi
7:53 AM40 °FRain. Fog.3 mph97%29.79 "Hg3 mi
6:53 AM40 °FOvercast.7 mph97%29.77 "Hg10 mi
5:53 AM40 °FMostly cloudy.7 mph93%29.75 "Hg10 mi
4:53 AM41 °FMostly cloudy.7 mph93%29.74 "Hg10 mi
3:53 AM44 °FLight rain. Mostly cloudy.No wind96%29.69 "Hg8 mi
2:53 AM45 °FLight rain. Mostly cloudy.No wind93%29.68 "Hg7 mi
1:53 AM46 °FPartly cloudy.5 mph86%29.68 "Hg10 mi
12:53 AM47 °FMostly cloudy.6 mph80%29.67 "Hg10 mi
11:53 PM
Sat, Apr 25
47 °FPassing clouds.5 mph74%29.66 "Hg10 mi
10:53 PM50 °FMostly cloudy.10 mph61%29.65 "Hg10 mi
9:53 PM50 °FMostly cloudy.12 mph61%29.66 "Hg10 mi
8:53 PM54 °FOvercast.12 mph47%29.64 "Hg10 mi
7:53 PM53 °FBroken clouds.9 mph55%29.66 "Hg10 mi
6:53 PM54 °FBroken clouds.3 mph55%29.67 "Hg10 mi
5:53 PM56 °FBroken clouds.No wind46%29.67 "Hg10 mi
Weather by CustomWeather, © 2015

See weather overviewHow to use our weather pages